Weather History for Georgetown, SC

Change the Weather History Date:

Saturday, March 2, 2013

  Actual Average Record
Temperature  
Mean Temperature 41 °F -  
Max Temperature 50 °F 64 °F 80 °F (2012)
Min Temperature 32 °F 40 °F 32 °F (2013)
Degree Days  
Heating Degree Days 24    
Moisture  
Dew Point 34 °F    
Average Humidity 79    
Maximum Humidity 100    
Minimum Humidity 50    
Precipitation  
Precipitation 0.00 in - - ()
Sea Level Pressure  
Sea Level Pressure 29.90 in    
Wind  
Wind Speed 4 mph (West)    
Max Wind Speed 14 mph    
Max Gust Speed 21 mph    
Visibility 10 miles    
Events      
Averages and records for this station are not official NWS values.
T = Trace of Precipitation, MM = Missing Value Source: NWS Daily Summary

Daily Weather History Graph

Daily Weather History Graph

Search for Another Location

Airport:

Trip Planner

Search our weather history database for the weather conditions in past years. The results will help you decide how hot, cold, wet, or windy it might be!

Date:

Astronomy

Mar. 02, 2013 Rise Set
Actual Time 6:43 AM EST 6:15 PM EST
Civil Twilight 6:19 AM EST 6:40 PM EST
Nautical Twilight 5:50 AM EST 7:08 PM EST
Astronomical Twilight 5:21 AM EST 7:37 PM EST
Moon 11:33 PM EST (3/2) 9:28 AM EST (3/2)
Length of Visible Light 12h 20m
Length of Day
11h 31m
Waning Gibbous, 74% of the Moon is Illuminated
Mar 2
Waning Gibbous
Mar 4
Last Quarter
Mar 11
New
Mar 19
First Quarter
Mar 27
Full

Hourly Weather History & Observations

Time (EST) Temp. Windchill Dew Point Humidity Pressure Visibility Wind Dir Wind Speed Gust Speed Precip Events Conditions
12:15 AM 33.8 °F - 33.8 °F 100% 29.93 in 10.0 mi Calm Calm - N/A   Clear
12:35 AM 33.8 °F - 33.8 °F 100% 29.93 in 10.0 mi Calm Calm - N/A   Clear
12:55 AM 33.8 °F - 33.8 °F 100% 29.93 in 10.0 mi Calm Calm - N/A   Clear
1:35 AM 32.0 °F - 32.0 °F 100% 29.93 in 10.0 mi Calm Calm - N/A   Clear
1:55 AM 32.0 °F - 32.0 °F 100% 29.93 in 10.0 mi Calm Calm - N/A   Clear
2:15 AM 33.8 °F - 33.8 °F 100% 29.93 in 10.0 mi Calm Calm - N/A   Clear
2:35 AM 32.0 °F - 32.0 °F 100% 29.92 in 10.0 mi Calm Calm - N/A   Clear
2:55 AM 32.0 °F 28.7 °F 32.0 °F 100% 29.91 in 10.0 mi West 3.5 mph - N/A   Clear
3:15 AM 32.0 °F - 32.0 °F 100% 29.91 in 10.0 mi Calm Calm - N/A   Scattered Clouds
3:35 AM 35.6 °F - 35.6 °F 100% 29.90 in 10.0 mi Calm Calm - N/A   Overcast
3:55 AM 35.6 °F - 35.6 °F 100% 29.90 in 10.0 mi Calm Calm - N/A   Overcast
4:15 AM 35.6 °F - 35.6 °F 100% 29.90 in 10.0 mi Calm Calm - N/A   Overcast
4:35 AM 37.4 °F - 37.4 °F 100% 29.90 in 10.0 mi Calm Calm - N/A   Overcast
4:55 AM 37.4 °F 32.8 °F 37.4 °F 100% 29.91 in 10.0 mi West 5.8 mph - N/A   Overcast
5:15 AM 39.2 °F 35.0 °F 37.4 °F 93% 29.91 in 10.0 mi West 5.8 mph - N/A   Overcast
5:35 AM 39.2 °F 34.2 °F 37.4 °F 93% 29.91 in 10.0 mi West 6.9 mph - N/A   Overcast
5:55 AM 37.4 °F 32.8 °F 37.4 °F 100% 29.91 in 10.0 mi West 5.8 mph - N/A   Overcast
6:15 AM 37.4 °F 33.8 °F 35.6 °F 93% 29.92 in 10.0 mi West 4.6 mph - N/A   Overcast
6:35 AM 39.2 °F 35.0 °F 35.6 °F 87% 29.92 in 10.0 mi West 5.8 mph - N/A   Overcast
7:35 AM 39.2 °F 35.0 °F 35.6 °F 87% 29.92 in 10.0 mi West 5.8 mph - N/A   Overcast
7:55 AM 37.4 °F 34.9 °F 35.6 °F 93% 29.92 in 10.0 mi WSW 3.5 mph - N/A   Mostly Cloudy
8:15 AM 41.0 °F 38.0 °F 35.6 °F 81% 29.93 in 10.0 mi WSW 4.6 mph - N/A   Clear
8:35 AM 42.8 °F 39.3 °F 35.6 °F 76% 29.92 in 10.0 mi West 5.8 mph - N/A   Clear
8:55 AM 42.8 °F 37.5 °F 33.8 °F 70% 29.92 in 10.0 mi West 9.2 mph - N/A   Clear
9:15 AM 44.6 °F 40.2 °F 33.8 °F 66% 29.91 in 10.0 mi West 8.1 mph - N/A   Clear
9:35 AM 46.4 °F 41.9 °F 33.8 °F 62% 29.91 in 10.0 mi WSW 9.2 mph - N/A   Clear
9:55 AM 46.4 °F 41.1 °F 32.0 °F 57% 29.91 in 10.0 mi WSW 11.5 mph - N/A   Clear
10:15 AM 46.4 °F 40.4 °F 32.0 °F 57% 29.90 in 10.0 mi SW 13.8 mph - N/A   Scattered Clouds
10:35 AM 48.2 °F - 32.0 °F 54% 29.90 in 10.0 mi West 12.7 mph - N/A   Scattered Clouds
10:55 AM 46.4 °F 41.1 °F 32.0 °F 57% 29.89 in 10.0 mi West 11.5 mph 17.3 mph N/A   Mostly Cloudy
11:15 AM 50.0 °F - 32.0 °F 50% 29.89 in 10.0 mi West 12.7 mph 20.7 mph N/A   Scattered Clouds
11:35 AM 50.0 °F - 32.0 °F 50% 29.88 in 10.0 mi West 8.1 mph 17.3 mph N/A   Mostly Cloudy
11:55 AM 48.2 °F - 32.0 °F 54% 29.88 in 10.0 mi WNW 11.5 mph 17.3 mph N/A   Mostly Cloudy
12:15 PM 48.2 °F - 32.0 °F 54% 29.87 in 10.0 mi West 12.7 mph 19.6 mph N/A   Mostly Cloudy
12:35 PM 48.2 °F - 32.0 °F 54% 29.87 in 10.0 mi WNW 13.8 mph 20.7 mph N/A   Mostly Cloudy
12:55 PM 50.0 °F - 32.0 °F 50% 29.85 in 10.0 mi West 11.5 mph 18.4 mph N/A   Mostly Cloudy
1:35 PM 50.0 °F - 32.0 °F 50% 29.85 in 10.0 mi WNW 12.7 mph 18.4 mph N/A   Overcast
1:55 PM 50.0 °F - 32.0 °F 50% 29.84 in 10.0 mi WNW 10.4 mph 19.6 mph N/A   Overcast
2:15 PM 48.2 °F - 32.0 °F 54% 29.84 in 10.0 mi WNW 12.7 mph 17.3 mph N/A   Overcast
2:35 PM 48.2 °F - 32.0 °F 54% 29.84 in 10.0 mi West 10.4 mph 17.3 mph N/A   Overcast
2:55 PM 48.2 °F - 32.0 °F 54% 29.85 in 10.0 mi West 13.8 mph - N/A   Overcast
3:15 PM 46.4 °F 41.1 °F 32.0 °F 57% 29.85 in 10.0 mi West 11.5 mph 17.3 mph N/A   Overcast
3:35 PM 46.4 °F 41.5 °F 33.8 °F 62% 29.85 in 10.0 mi WNW 10.4 mph - N/A   Overcast
3:55 PM 44.6 °F 39.7 °F 33.8 °F 66% 29.85 in 10.0 mi WNW 9.2 mph - N/A   Overcast
4:15 PM 44.6 °F 39.2 °F 33.8 °F 66% 29.85 in 10.0 mi West 10.4 mph 16.1 mph N/A   Overcast
4:35 PM 44.6 °F 39.7 °F 33.8 °F 66% 29.86 in 10.0 mi West 9.2 mph - N/A   Overcast
4:55 PM 44.6 °F 40.2 °F 33.8 °F 66% 29.86 in 10.0 mi WNW 8.1 mph - N/A   Overcast
5:15 PM 44.6 °F 39.2 °F 33.8 °F 66% 29.87 in 10.0 mi WNW 10.4 mph - N/A   Overcast
5:35 PM 44.6 °F 40.2 °F 35.6 °F 71% 29.87 in 10.0 mi WNW 8.1 mph - N/A   Overcast
5:55 PM 44.6 °F 41.4 °F 35.6 °F 71% 29.88 in 10.0 mi NW 5.8 mph - N/A   Overcast
6:15 PM 44.6 °F 40.7 °F 35.6 °F 71% 29.88 in 10.0 mi WNW 6.9 mph - N/A   Overcast
6:35 PM 42.8 °F 40.1 °F 35.6 °F 76% 29.89 in 10.0 mi WNW 4.6 mph - N/A   Scattered Clouds
6:55 PM 41.0 °F 37.1 °F 35.6 °F 81% 29.89 in 10.0 mi West 5.8 mph - N/A   Clear
7:15 PM 37.4 °F - 35.6 °F 93% 29.90 in 10.0 mi Calm Calm - N/A   Clear
7:35 PM 41.0 °F 38.0 °F 35.6 °F 81% 29.90 in 10.0 mi West 4.6 mph - N/A   Clear
7:55 PM 41.0 °F 37.1 °F 35.6 °F 81% 29.90 in 10.0 mi WNW 5.8 mph - N/A   Clear
8:15 PM 39.2 °F 35.9 °F 35.6 °F 87% 29.91 in 10.0 mi West 4.6 mph - N/A   Clear
8:35 PM 37.4 °F 32.8 °F 35.6 °F 93% 29.92 in 10.0 mi West 5.8 mph - N/A   Clear
8:55 PM 37.4 °F 34.9 °F 33.8 °F 87% 29.92 in 10.0 mi WSW 3.5 mph - N/A   Clear
9:15 PM 37.4 °F 34.9 °F 33.8 °F 87% 29.93 in 10.0 mi West 3.5 mph - N/A   Clear
9:35 PM 37.4 °F 34.9 °F 33.8 °F 87% 29.93 in 10.0 mi WSW 3.5 mph - N/A   Clear
9:55 PM 37.4 °F 33.8 °F 35.6 °F 93% 29.93 in 10.0 mi West 4.6 mph - N/A   Clear
10:15 PM 35.6 °F 32.8 °F 33.8 °F 93% 29.94 in 10.0 mi WSW 3.5 mph - N/A   Clear
10:35 PM 33.8 °F 30.8 °F 33.8 °F 100% 29.93 in 10.0 mi West 3.5 mph - N/A   Clear
10:55 PM 32.0 °F 27.5 °F 32.0 °F 100% 29.93 in 10.0 mi West 4.6 mph - N/A   Clear
11:15 PM 32.0 °F 27.5 °F 32.0 °F 100% 29.92 in 10.0 mi SW 4.6 mph - N/A   Clear
11:35 PM 32.0 °F 27.5 °F 32.0 °F 100% 29.92 in 10.0 mi WSW 4.6 mph - N/A   Clear
11:55 PM 32.0 °F 28.7 °F 32.0 °F 100% 29.92 in 10.0 mi WSW 3.5 mph - N/A   Clear